Kenai, AK

5:42 AM AKDT on April 28, 2017 (GMT -0800)
Kenai Municipal

Weather History for PAEN - August, 2012

Change the Weather History Date:

Saturday, August 4, 2012

  Actual Average Record
Temperature  
Mean Temperature 50 °F -  
Max Temperature 53 °F 63 °F 77 °F (2015)
Min Temperature 46 °F 48 °F 36 °F (2003)
Degree Days  
Heating Degree Days 16    
Moisture  
Dew Point 48 °F    
Average Humidity 88    
Maximum Humidity 97    
Minimum Humidity 80    
Precipitation  
Precipitation 0.08 in - - ()
Sea Level Pressure  
Sea Level Pressure 30.04 in    
Wind  
Wind Speed 5 mph (NNW)    
Max Wind Speed 10 mph    
Max Gust Speed -    
Visibility 10 miles    
Events Rain    
Averages and records for this station are not official NWS values.
T = Trace of Precipitation, MM = Missing Value Source: NWS Daily Summary

Daily Weather History Graph

Daily Weather History Graph

Search for Another Location

Airport or City:

Trip Planner

Search our weather history database for the weather conditions in past years. The results will help you decide how hot, cold, wet, or windy it might be!

Date:

Astronomy

Aug. 04, 2012 Rise Set
Actual Time 5:50 AM AKDT 10:29 PM AKDT
Civil Twilight 4:51 AM AKDT 11:28 PM AKDT
Nautical Twilight 2:48 AM AKDT 1:22 AM AKDT
Astronomical Twilight Sun does not set Sun does not set
Moon 10:24 PM AKDT (8/4) 9:59 AM AKDT (8/4)
Length of Visible Light 18h 37m
Length of Day
16h 38m
Waning Gibbous, 92% of the Moon is Illuminated
Aug 4
Waning Gibbous
Aug 9
Last Quarter
Aug 17
New
Aug 24
First Quarter
Aug 31
Full

Hourly Weather History & Observations

Time (AKDT) Temp. Dew Point Humidity Pressure Visibility Wind Dir Wind Speed Gust Speed Precip Events Conditions
12:53 AM 51.1 °F 45.0 °F 80% 30.13 in 10.0 mi SSW 10.4 mph - N/A   Partly Cloudy
1:53 AM 50.0 °F 44.1 °F 80% 30.13 in 10.0 mi SSE 6.9 mph - N/A   Partly Cloudy
2:53 AM 48.9 °F 44.1 °F 83% 30.12 in 10.0 mi SSE 3.5 mph - N/A   Mostly Cloudy
3:53 AM 48.9 °F 44.1 °F 83% 30.11 in 10.0 mi SE 3.5 mph - N/A   Overcast
4:53 AM 48.0 °F 44.1 °F 86% 30.10 in 10.0 mi Calm Calm - N/A   Mostly Cloudy
5:53 AM 46.9 °F 44.1 °F 90% 30.09 in 10.0 mi Calm Calm - N/A   Mostly Cloudy
6:53 AM 48.0 °F 45.0 °F 89% 30.08 in 10.0 mi Calm Calm - N/A   Overcast
7:53 AM 50.0 °F 45.0 °F 83% 30.08 in 10.0 mi Calm Calm - N/A   Overcast
8:53 AM 50.0 °F 45.0 °F 83% 30.08 in 10.0 mi Calm Calm - N/A   Overcast
9:53 AM 51.1 °F 46.9 °F 86% 30.08 in 10.0 mi Calm Calm - 0.00 in Rain Light Rain
10:53 AM 52.0 °F 46.9 °F 83% 30.07 in 10.0 mi North 4.6 mph - 0.01 in Rain Light Rain
11:36 AM 51.8 °F 48.2 °F 88% 30.06 in 10.0 mi NW 3.5 mph - 0.00 in Rain Light Rain
11:49 AM 51.8 °F 48.2 °F 88% 30.06 in 10.0 mi NW 4.6 mph - 0.00 in   Overcast
11:53 AM 52.0 °F 48.9 °F 89% 30.06 in 10.0 mi NW 4.6 mph - 0.00 in   Overcast
12:07 PM 51.8 °F 48.2 °F 88% 30.05 in 10.0 mi NW 5.8 mph - N/A   Overcast
12:53 PM 52.0 °F 48.0 °F 86% 30.06 in 10.0 mi NW 5.8 mph - 0.01 in   Overcast
1:53 PM 52.0 °F 48.0 °F 86% 30.05 in 10.0 mi NW 5.8 mph - 0.00 in Rain Light Rain
2:35 PM 51.8 °F 48.2 °F 88% 30.04 in 10.0 mi NW 4.6 mph - 0.00 in Rain Light Rain
2:53 PM 52.0 °F 48.9 °F 89% 30.05 in 10.0 mi WNW 4.6 mph - 0.00 in Rain Light Rain
3:01 PM 51.8 °F 48.2 °F 88% 30.04 in 8.0 mi WNW 3.5 mph - 0.00 in Rain Light Rain
3:40 PM 53.6 °F 50.0 °F 88% 30.03 in 8.0 mi NW 6.9 mph - 0.01 in Rain Light Rain
3:53 PM 53.1 °F 50.0 °F 89% 30.03 in 9.0 mi NW 5.8 mph - 0.01 in Rain Light Rain
4:00 PM 53.6 °F 50.0 °F 88% 30.02 in 10.0 mi NNW 5.8 mph - 0.00 in Rain Light Rain
4:13 PM 53.6 °F 50.0 °F 88% 30.01 in 10.0 mi NNW 4.6 mph - 0.00 in Rain Light Rain
4:53 PM 53.1 °F 50.0 °F 89% 30.01 in 10.0 mi NNE 8.1 mph - 0.01 in   Overcast
5:53 PM 53.1 °F 50.0 °F 89% 30.01 in 10.0 mi North 8.1 mph - 0.01 in   Overcast
6:53 PM 51.1 °F 48.9 °F 92% 29.99 in 5.0 mi North 6.9 mph - 0.00 in Rain Light Rain
7:53 PM 52.0 °F 48.9 °F 89% 29.96 in 10.0 mi NNW 5.8 mph - 0.01 in Rain Light Rain
8:53 PM 51.1 °F 50.0 °F 96% 29.95 in 10.0 mi NNE 4.6 mph - 0.00 in   Overcast
9:53 PM 51.1 °F 48.9 °F 92% 29.95 in 10.0 mi North 4.6 mph - 0.01 in Rain Light Rain
10:53 PM 50.0 °F 48.0 °F 93% 29.94 in 10.0 mi North 4.6 mph - 0.01 in   Overcast
11:53 PM 48.9 °F 48.0 °F 97% 29.93 in 10.0 mi North 4.6 mph - 0.00 in Rain Light Rain